Probability
1 1 0 0 0 0 0 1 0 0 1 1 1 0 1 2 1 1 3 5 6 7 8 11 11 11 13 14 15 14 13 13 12 12 12 12 12 11 10 9 6 4 2 1
1 0 0 0 0 0 1 1 1 0 0 0 0 0 1 2 2 2 4 5 6 7 11 13 13 12 13 15 15 14 13 12 11 12 14 14 12 11 10 10 8 6 5 4
0 0 0 0 0 0 1 2 2 1 0 0 0 0 1 2 3 5 6 5 5 9 13 14 13 13 13 14 13 12 12 11 11 12 15 15 12 11 11 11 11 9 8 8
0 0 0 0 0 0 1 2 2 1 0 0 0 0 0 1 3 6 8 5 6 11 12 12 12 11 12 12 10 9 10 11 11 12 13 13 12 11 12 11 11 9 9 10
0 0 0 0 0 0 1 2 2 1 0 0 0 0 0 1 3 7 8 7 7 9 10 10 10 10 11 11 9 9 11 12 12 12 12 12 11 10 10 10 8 8 9 10
0 0 0 0 0 0 0 1 1 0 0 0 0 0 0 1 4 9 11 11 9 7 8 9 10 11 12 12 11 12 13 13 12 12 12 11 10 9 10 10 8 6 7 8
0 0 0 0 0 0 0 0 0 0 0 0 0 0 1 2 6 12 14 14 11 8 9 11 12 13 14 14 14 15 15 14 14 13 13 13 13 12 12 11 9 7 7 7
0 0 0 0 0 0 0 0 0 0 0 0 0 1 3 4 7 11 13 14 11 10 12 13 13 15 16 17 18 19 19 17 17 16 16 15 15 14 13 11 10 8 7 7
0 0 0 0 0 0 0 0 0 0 0 0 1 2 4 6 8 9 10 11 10 9 10 12 12 15 19 21 22 23 23 21 19 18 17 15 14 14 13 11 9 8 8 8
0 0 0 0 0 0 0 0 0 0 0 0 1 2 4 6 8 9 9 10 10 10 11 12 13 16 20 25 27 25 23 20 19 17 15 13 13 13 13 11 9 7 7 7
0 0 0 0 0 0 0 0 0 0 0 0 0 1 3 6 9 10 10 11 12 13 15 16 18 18 20 24 25 23 19 16 17 17 15 14 13 14 14 13 11 9 8 7
0 0 0 0 0 0 0 0 0 0 0 0 0 1 3 6 10 12 12 12 12 14 16 19 21 20 20 19 18 17 16 14 15 18 18 16 16 17 17 15 13 12 10 9
0 0 0 0 0 0 0 0 0 0 0 0 1 3 5 9 12 13 12 11 10 12 15 19 20 21 18 14 12 12 13 13 16 20 21 18 17 18 18 16 15 13 12 12
0 0 0 0 0 0 0 1 1 1 0 0 1 4 8 11 13 11 10 9 10 12 17 20 21 20 17 13 13 14 13 14 18 22 22 20 18 17 17 15 14 13 12 12
0 0 0 0 0 0 0 1 2 1 1 1 3 7 11 14 14 12 11 12 14 16 19 22 23 20 18 18 19 19 18 18 21 24 23 21 19 18 17 15 13 12 12 11
0 0 0 0 0 0 0 1 2 1 2 4 8 11 14 17 16 15 16 18 20 20 22 23 24 23 22 23 24 23 22 24 25 25 24 23 21 20 19 17 15 14 13 10
0 0 0 0 0 0 0 0 1 2 5 9 14 16 18 19 16 15 17 20 21 23 25 25 24 25 26 27 26 25 25 27 28 27 26 25 25 23 21 19 18 16 13 11
0 0 0 0 0 0 0 0 2 5 8 12 16 18 19 18 15 14 14 15 17 21 24 25 25 25 27 27 25 24 24 26 27 26 25 25 25 23 21 19 18 16 13 11
0 0 0 0 0 0 0 1 3 7 10 12 15 17 18 17 15 13 13 12 13 18 22 22 22 23 25 26 23 20 20 20 21 21 21 21 21 20 19 17 16 14 12 10
0 0 0 0 0 1 1 3 4 6 9 12 15 16 16 15 13 13 12 12 13 16 19 18 17 18 21 21 19 18 18 17 17 17 19 19 18 17 16 15 14 13 12 11
0 0 0 0 1 2 3 4 4 5 8 11 14 15 13 11 12 14 14 13 15 17 18 18 16 15 16 17 18 19 19 18 18 18 19 18 16 14 12 11 12 13 12 11
0 0 0 1 2 2 3 3 3 4 7 10 11 11 10 10 14 18 20 19 20 20 21 21 20 19 19 18 18 19 19 19 19 19 20 17 13 11 9 9 11 13 13 13
0 0 1 2 2 1 1 1 2 3 6 8 8 8 10 13 17 21 23 23 22 21 21 23 24 25 23 20 19 19 18 17 17 17 17 14 11 10 9 9 10 12 13 14
0 0 1 2 3 1 1 2 3 4 5 7 8 10 12 13 16 18 20 20 19 19 20 23 26 25 23 20 18 16 15 13 12 13 13 12 11 10 9 8 8 8 11 13
0 0 1 2 2 2 2 2 4 5 6 7 9 11 12 12 12 14 16 16 16 17 19 23 25 23 20 19 16 13 10 9 9 9 10 11 10 10 8 6 4 4 5 7
0 0 1 2 2 1 1 2 4 6 6 7 8 10 10 10 11 13 15 15 14 15 17 21 23 21 19 18 15 11 8 9 10 9 10 9 9 9 7 4 2 1 2 3
Wind_Speed
2 2 4 7 6 6 4 4 4 6 4 2 4 6 7 6 7 7 7 8 9 10 9 10 10 10 10 8 8 7 7 6 5 3 3 3 2 1 1 1 2 2 2 2
3 5 10 7 5 4 3 4 5 5 5 2 3 4 6 8 9 10 10 9 9 8 8 9 9 9 10 9 8 8 7 6 5 4 3 3 3 2 1 1 1 2 2 2
6 9 6 4 5 3 4 5 6 5 2 2 2 2 2 3 4 6 7 8 10 12 13 12 10 9 10 10 10 9 7 6 5 5 3 3 2 1 1 1 0 1 2 2
5 7 5 5 6 5 6 7 5 3 1 2 2 2 4 3 3 5 6 7 8 11 11 11 10 9 9 10 9 8 7 6 5 5 5 5 4 3 2 2 1 1 1 2
6 4 5 6 7 5 7 5 3 2 2 1 1 2 5 3 5 6 7 7 8 10 12 12 12 11 9 8 9 8 7 6 5 5 5 5 4 3 2 2 2 1 1 1
7 6 5 6 6 4 4 1 4 4 5 2 3 2 5 4 8 9 8 9 9 9 11 11 10 10 8 6 7 8 8 6 5 5 5 5 5 4 4 3 2 1 0 0
7 7 5 2 2 3 2 5 4 5 4 4 3 2 6 6 6 10 10 9 9 9 10 10 10 10 10 9 8 8 8 7 6 5 4 4 5 4 5 4 3 2 1 1
3 7 5 3 6 5 3 8 7 4 3 4 2 2 6 4 3 6 8 8 7 7 8 9 10 9 10 10 8 8 8 7 6 6 5 4 4 3 3 3 3 3 2 2
6 7 6 4 3 5 2 2 7 7 2 0 3 3 4 1 3 4 6 6 7 8 8 8 8 8 8 9 9 9 9 7 7 6 5 4 4 4 4 3 3 2 2 2
7 4 5 4 2 1 5 5 5 5 3 2 4 3 4 3 3 4 6 7 7 8 9 8 8 8 7 8 7 8 8 7 6 6 6 5 4 4 4 4 3 3 2 2
5 3 5 3 2 5 1 2 4 4 5 6 3 6 5 7 7 6 5 6 8 9 10 10 9 8 8 7 7 7 7 6 6 6 5 5 5 4 4 3 4 3 3 3
4 6 3 6 6 5 5 6 7 5 3 4 4 7 3 5 6 6 5 5 5 7 8 9 10 10 8 8 7 6 7 7 7 6 5 5 4 4 4 4 4 3 3 3
4 6 1 7 8 4 0 2 4 6 5 4 4 6 1 2 4 5 5 5 5 6 7 7 8 9 9 8 7 7 7 7 6 6 6 5 4 4 4 4 4 4 3 3
6 5 7 8 7 4 3 2 2 6 4 4 6 6 3 4 5 5 5 5 5 7 7 7 7 7 7 7 7 7 7 6 6 5 5 5 5 5 4 3 3 3 3 3
5 3 3 4 4 1 1 2 1 3 7 7 7 7 7 7 8 7 6 6 7 7 7 8 7 7 7 6 6 6 5 5 5 5 5 4 4 4 3 3 3 3 3 3
4 3 1 2 3 2 2 3 1 2 3 5 6 4 5 4 4 5 6 7 8 8 8 7 7 7 6 6 6 5 5 5 5 5 5 4 4 3 3 3 3 3 2 2
2 3 3 2 4 4 3 3 1 1 1 5 5 6 5 4 4 6 6 6 7 7 8 8 7 7 7 6 5 5 5 5 5 4 4 4 3 3 3 3 3 3 2 2
4 3 3 1 3 1 6 3 1 3 2 3 4 5 7 6 4 3 5 6 6 7 7 7 6 6 5 5 5 5 5 5 5 4 3 3 4 3 3 3 2 2 2 3
4 6 4 3 2 3 4 3 1 2 1 1 5 6 6 7 6 2 2 5 6 7 6 6 5 5 5 5 5 6 4 4 4 4 3 4 4 4 3 3 3 2 2 2
5 6 5 4 3 3 5 6 3 4 1 1 4 6 7 7 4 4 3 4 5 5 5 5 5 5 6 5 6 6 5 4 5 5 5 4 4 4 4 3 3 2 2 2
5 5 3 3 2 4 5 7 3 3 5 3 2 5 6 4 6 6 4 4 4 5 6 6 6 4 4 5 6 5 4 5 4 4 4 3 3 3 3 3 2 2 1 1
2 2 1 2 2 5 6 4 1 4 2 2 2 2 3 3 4 4 5 5 5 5 5 6 5 5 4 5 6 5 4 3 3 3 3 3 3 3 2 2 2 1 1 1
3 6 5 5 5 5 2 1 2 2 3 2 2 1 3 4 5 5 4 5 5 5 5 5 5 5 4 4 6 5 3 3 3 3 3 2 2 2 2 2 2 2 1 1
2 1 3 1 3 2 1 1 2 3 2 2 3 3 4 5 5 4 4 4 4 4 5 5 6 5 4 3 4 4 3 3 3 3 2 2 2 1 1 1 2 2 2 2
3 0 2 1 2 2 3 1 1 2 3 3 3 3 3 4 5 5 4 4 4 3 3 4 5 5 4 3 3 2 3 3 3 2 1 1 1 2 1 1 1 2 2 3
2 3 4 4 5 3 3 3 1 3 2 3 4 3 3 4 5 5 5 3 3 3 3 4 4 4 3 3 3 2 2 3 3 2 1 1 1 1 1 1 1 2 1 2
Wind_Direction
259 91 234 236 219 215 214 251 266 269 258 168 178 187 189 171 160 168 174 170 165 167 162 153 149 149 148 148 149 151 150 159 149 142 147 146 150 153 154 156 153 148 143 139
7 262 240 234 237 236 235 250 259 280 271 182 188 197 186 178 175 175 176 177 169 158 156 158 155 154 157 158 157 154 158 164 164 164 161 155 150 152 163 149 135 152 147 147
212 245 240 214 242 247 260 225 231 237 290 23 95 327 226 194 172 169 175 175 168 168 165 165 163 161 161 164 164 162 163 160 165 157 135 125 96 73 72 87 144 187 160 153
247 247 235 227 235 208 253 241 220 193 122 276 146 217 274 211 196 190 182 175 173 170 163 163 163 164 171 173 166 160 160 159 157 152 148 151 153 164 190 175 172 173 157 157
260 238 231 238 240 215 225 234 224 174 136 31 358 143 266 180 192 205 188 182 183 171 165 168 168 168 170 171 167 164 158 159 159 156 157 155 157 165 156 133 143 164 174 154
256 257 227 232 247 214 196 18 26 50 71 17 264 164 266 219 194 186 179 179 180 175 170 166 164 158 159 164 166 161 159 165 166 160 157 155 154 154 145 153 161 178 186 164
298 290 261 225 292 318 100 87 28 359 13 265 266 158 246 245 185 174 172 176 182 175 169 161 161 164 164 168 173 167 164 167 167 160 164 162 156 158 165 173 172 168 169 168
236 282 264 226 192 204 206 139 155 192 220 278 315 232 256 240 176 158 161 167 168 168 164 165 169 170 170 166 171 170 168 169 169 167 170 166 162 164 172 173 169 175 183 189
194 250 273 252 209 157 176 186 163 138 140 333 283 275 303 92 121 146 149 146 165 174 170 168 169 168 168 169 175 174 167 169 174 174 170 170 175 174 173 172 171 177 176 170
170 237 285 297 13 327 165 160 95 110 142 241 283 264 231 203 173 158 159 157 164 170 166 164 163 163 167 170 167 164 163 170 173 175 179 184 190 184 175 170 175 169 168 168
163 169 296 342 196 219 182 119 116 122 152 155 222 265 223 187 179 160 165 170 167 172 169 163 161 164 168 166 162 164 166 168 175 181 182 186 190 182 169 172 178 176 177 174
176 142 243 264 261 220 179 178 147 149 211 161 165 261 272 175 169 149 148 160 162 164 165 164 164 168 172 169 168 170 171 174 181 182 177 180 179 174 170 176 183 180 182 186
148 122 76 336 336 343 343 201 155 137 128 152 161 252 297 137 143 138 146 158 156 147 150 156 163 171 173 172 172 176 177 178 177 172 169 172 172 170 178 184 185 184 183 186
128 120 158 194 224 246 281 294 168 132 149 183 201 214 241 168 158 161 167 158 149 147 149 151 159 170 172 172 174 176 178 176 170 168 170 175 181 181 183 181 176 179 182 182
105 147 187 213 229 244 304 302 250 177 181 176 198 193 216 195 177 173 169 158 143 143 148 152 157 166 169 169 170 168 170 169 167 163 168 182 181 175 170 167 175 176 179 187
70 140 139 321 330 358 353 334 301 246 189 164 152 210 227 177 152 153 156 149 147 152 150 152 156 159 163 165 163 158 159 162 157 156 165 167 168 169 169 174 176 173 181 187
67 105 111 267 316 28 325 289 230 262 198 158 180 208 167 152 164 167 162 155 157 155 151 155 161 164 162 161 154 152 157 148 147 153 158 161 158 166 179 180 172 185 193 184
132 109 130 141 56 221 248 279 99 99 46 110 146 162 158 155 149 144 159 161 159 156 156 158 155 149 152 146 141 141 139 140 144 146 156 166 162 167 169 162 173 201 193 191
134 135 120 120 155 259 294 305 305 129 16 83 131 127 125 115 81 42 172 163 160 158 155 153 150 143 138 143 153 140 137 141 150 160 176 179 172 168 163 172 191 200 190 202
55 93 112 123 141 221 262 299 289 95 45 329 120 132 137 118 118 230 200 153 146 138 141 140 138 132 139 153 150 138 151 167 184 191 189 181 172 168 174 191 203 200 186 207
17 32 83 131 167 247 282 310 21 115 226 237 146 145 136 152 184 192 165 148 148 140 142 139 140 141 152 152 138 139 156 183 194 181 173 170 172 184 186 190 195 187 199 213
153 118 138 111 133 254 303 6 71 223 218 137 121 136 126 142 133 129 128 129 126 125 126 133 137 138 141 139 136 143 166 184 171 159 157 170 181 190 177 171 188 193 192 212
173 177 174 176 205 242 271 215 242 132 108 113 111 95 121 118 114 116 122 128 127 132 134 136 133 129 131 141 144 151 170 157 150 148 156 173 177 183 172 169 184 198 192 193
296 116 117 143 266 280 315 38 54 76 84 88 110 111 108 113 117 125 129 125 122 132 136 130 126 131 142 148 144 153 155 146 138 149 170 172 169 196 204 195 188 189 200 208
250 145 126 189 263 342 341 3 52 53 72 76 86 105 106 119 125 128 128 126 124 124 129 134 134 143 151 141 134 139 136 128 130 144 155 176 190 195 196 229 236 215 219 212
241 179 170 208 217 184 238 273 48 76 72 85 83 65 89 105 117 114 118 118 117 115 118 119 124 126 132 130 129 130 132 134 139 144 156 180 187 176 171 170 346 357 295 284